Home   Weather   Debrecen   Past weeks
Flag for Hungary

Past Weather in Debrecen, Hungary — Yesterday and Last 2 Weeks

Now
59 °F

Cool.


Feels Like: 59 °F
Forecast: 74 / 49 °F
Wind: No wind

Location: Debrecen Airport

Current Time: Oct 17, 2019 at 10:19:44 am

Latest Report: Oct 17, 2019 at 9:15 am


Visibility: 4 mi

Pressure: 30.12 "Hg

Humidity: 82%

Dew Point: 54 °F

Location of DebrecenLocation

Past Weather in Debrecen — Graph

°F

Debrecen Temperature Yesterday

Maximum temperature yesterday: 75 °F (at 12:15 pm)
Minimum temperature yesterday: 48 °F (at 4:15 am)
Average temperature yesterday: 60 °F

High & Low Weather Summary for the Past Weeks

 TemperatureHumidityPressure
High79 °F (Oct 15, 2:45 pm)100% (Oct 3, 2:45 am)30.27 "Hg (Oct 3, 2:45 am)
Low28 °F (Oct 8, 6:45 am)35% (Oct 9, 3:15 pm)29.62 "Hg (Oct 2, 3:45 pm)
Average54 °F73%30.02 "Hg
* Reported Oct 2 8:15 am — Oct 17 8:47 am, Debrecen. Weather by CustomWeather, © 2019

Note: Actual official high and low records may vary slightly from our data, if they occured in-between our weather recording intervals... More about our weather records

Advertising

Debrecen Weather History for the Previous 24 Hours

Scroll right to see more
 ConditionsComfort  
Time TempWeatherWind HumidityBarometerVisibility
8:47 am
Thu, Oct 17
55 °FFog.No wind94%30.12 "Hg3 mi
8:22 am52 °FFog.No wind100%30.09 "Hg2 mi
8:04 am50 °FFog.2 mph100%30.09 "Hg2 mi
7:53 am48 °FFog.2 mph100%30.09 "Hg2 mi
7:35 am48 °FFog.No wind100%30.09 "Hg2 mi
7:15 am48 °FFog.No wind100%30.09 "Hg1 mi
7:09 am48 °FFog.No wind100%30.09 "Hg2 mi
6:45 am48 °FFog.No wind100%30.09 "Hg2 mi
6:39 am48 °FFog.2 mph100%30.07 "Hg1 mi
6:25 am50 °FFog.No wind100%30.07 "Hg1 mi
5:45 am50 °FFog.1 mph100%30.07 "Hg3 mi
5:15 am50 °FFog.2 mph100%30.07 "Hg3 mi
4:45 am52 °FFog.No wind94%30.07 "Hg3 mi
4:15 am52 °FClear.No wind100%30.07 "Hg4 mi
3:45 am54 °FClear.No wind94%30.07 "Hg4 mi
3:15 am52 °FClear.1 mph100%30.07 "Hg4 mi
2:45 am54 °FClear.No wind94%30.07 "Hg4 mi
2:15 am52 °FClear.3 mph94%30.07 "Hg4 mi
1:45 am50 °FFog.3 mph100%30.07 "Hg3 mi
1:36 am52 °FFog.2 mph94%30.07 "Hg3 mi
1:15 am50 °FClear.2 mph100%30.07 "Hg4 mi
12:57 am50 °FFog.2 mph94%30.07 "Hg3 mi
12:15 am52 °FCool.No wind88%30.07 "Hg4 mi
11:45 pm
Wed, Oct 16
57 °FCool.No wind77%30.07 "Hg5 mi
11:15 pm57 °FCool.2 mph82%30.07 "Hg5 mi
10:45 pm57 °FCool.3 mph77%30.07 "Hg5 mi
10:15 pm54 °FCool.3 mph88%30.04 "Hg4 mi
9:45 pm54 °FCool.No wind88%30.04 "Hg4 mi
9:15 pm54 °FCool.No wind88%30.01 "Hg4 mi
8:45 pm55 °FCool.No wind77%30.01 "Hg4 mi
8:15 pm55 °FCool.No wind82%30.01 "Hg4 mi
7:45 pm59 °FCool.No wind72%30.01 "Hg5 mi
7:15 pm61 °FCool.2 mph68%30.01 "Hg5 mi
6:45 pm64 °FMild.5 mph60%30.01 "Hg5 mi
6:15 pm66 °FMild.5 mph56%30.01 "Hg5 mi
5:45 pm68 °FMild.5 mph56%30.01 "Hg5 mi
5:15 pm72 °FMild.3 mph50%30.01 "Hg5 mi
4:45 pm73 °FMild.7 mph47%30.01 "Hg5 mi
4:15 pm75 °FMild.7 mph44%29.98 "Hg5 mi
3:45 pm75 °FMild.8 mph44%29.98 "Hg5 mi
3:15 pm75 °FMild.8 mph41%29.98 "Hg5 mi
2:45 pm75 °FMild.10 mph44%29.98 "Hg6 mi
2:15 pm75 °FMild.9 mph44%29.98 "Hg6 mi
1:45 pm75 °FMild.10 mph44%29.98 "Hg6 mi
1:15 pm75 °FMild.10 mph41%29.98 "Hg5 mi
12:45 pm75 °FMild.10 mph41%29.98 "Hg6 mi
12:15 pm75 °FMild.12 mph41%30.01 "Hg6 mi
11:45 am73 °FMild.9 mph44%29.98 "Hg6 mi
11:15 am72 °FHaze.5 mph50%30.01 "Hg3 mi
10:45 am70 °FMild.2 mph53%30.01 "Hg5 mi
10:15 am66 °FMild.3 mph60%30.01 "Hg4 mi
Weather by CustomWeather, © 2019

See weather overview